Regional Weather Roundup
Issued by NWS Northern Indiana

Home | Current Version | Previous Version | Graphics & Text | Print | Product List | Glossary On
Versions: 1 2 3 4 5 6 7 8 9 10 11 12 13 14 15 16 17 18 19 20 21 22 23 24 25 26 27 28 29 30 31 32 33 34 35 36 37 38 39 40 41 42 43 44 45 46 47 48 49 50
000
ASUS43 KIWX 122300
RWRIWX

KIWX WEATHER ROUNDUP
NATIONAL WEATHER SERVICE NORTHERN INDIANA
700 PM EDT SAT JUL 12 2014

NOTE: "FAIR" INDICATES FEW OR NO CLOUDS BELOW 12,000 FEET WITH NO
SIGNIFICANT WEATHER AND/OR OBSTRUCTIONS TO VISIBILITY.

* THESE STATIONS ARE NOT UNDER NWS QUALITY CONTROL. THEY ALSO MAY NOT
  REPORT WEATHER SUCH AS PRECIPITATION OR FOG.

INZ001>027-130000-
NORTHERN INDIANA

CITY           SKY/WX    TMP DP  RH WIND       PRES   REMARKS
GARY*          CLOUDY    79  73  83 SW9       29.96F
VALPARAISO     CLOUDY    77  71  82 SW10G18   29.99F
KNOX*          CLOUDY    77  70  78 SW9       29.99F
SOUTH BEND     CLOUDY    78  69  73 S10       30.00F
GOSHEN         PTSUNNY   78  70  76 S9        30.02F
MONTICELLO*    CLOUDY    76  71  84 SW8       30.01F
WARSAW*        CLOUDY    77  68  73 SW3       30.04S
ANGOLA*        SUNNY     77  70  78 S7        30.03F
FORT WAYNE     PTSUNNY   79  67  66 SW9       30.05S

$$
INZ028>050-130000-
CENTRAL INDIANA

CITY           SKY/WX    TMP DP  RH WIND       PRES   REMARKS
LAFAYETTE      CLOUDY    77  71  82 SW8       30.01F
KOKOMO*        CLOUDY    75  68  78 S8        30.04S
MUNCIE*        PTSUNNY   79  66  64 SW13G18   30.05F
INDIANAPOLIS   CLOUDY    78  69  73 SW15      30.04F

$$
MIZ043>046-050>051-056>058-064>065-071>073-077>080-130000-
SOUTHWEST LOWER MICHIGAN

CITY           SKY/WX    TMP DP  RH WIND       PRES   REMARKS
BATTLE CREEK   CLOUDY    75  68  78 SW8       30.02F
BENTON HARBOR  CLOUDY    75  70  84 SE6       29.98F
COLDWATER*     CLOUDY    76  69  79 S5        30.01F
HILLSDALE*     PTSUNNY   76  71  83 W6        30.04F
HOLLAND        CLOUDY    76  70  82 S10       29.98F
GRAND RAPIDS   CLOUDY    75  70  84 SW7       29.98F
KALAMAZOO      CLOUDY    75  68  78 SW7       30.02S
STURGIS*       PTSUNNY   73  70  88 S6        30.02S
THREE RIVERS*  CLOUDY    75  71  86 S6        30.02S

$$
OHZ001>008-015>018-024>025-130000-
NORTHWEST OHIO

CITY           SKY/WX    TMP DP  RH WIND       PRES   REMARKS
DEFIANCE       CLOUDY    82  67  60 SW8       30.03S
FINDLAY        CLOUDY    82  68  62 SW15      30.03S
TOLEDO EXPRESS CLOUDY    81  68  64 SW12      30.02R
TOLEDO METCALF CLOUDY    83  65  54 S13       30.02R
LIMA           CLOUDY    82  68  62 SW14      30.05F

$$
&&


USA.gov is the U.S. government's official web portal to all federal, state and local government web resources and services.